Location: Six Mile Lake
(44.9000°N, 79.7170°W)
Time: 13:35:26
(UTC-04:00)

AO-109 - Pass Details

Date: 04 July 2022
Orbit: 470 x 506 km, 60.7° (Epoch: 09 August)

Event Time Altitude Azimuth Distance (km) Brightness Sun altitude
Exits shadow 03:39:13 17° 158° (SSE) 1,269 ? -15.5°
Maximum altitude 03:40:52 23° 121° (ESE) 1,057 ? -15.3°
Drops below altitude 10° 03:43:51 10° 67° (ENE) 1,665 ? -15.0°
Sets 03:46:19 0° 53° (NE) 2,558 ? -14.8°
